This demonstration page uses our WeatherBlox Daily Observations layout. Learn more.

Left ArrowRight Arrow

39.08367, -84.50855

Hourly Observations for August 5, 2020

Temp ( °F °C ) Dew Point ( °F °C ) Humidity (%) Winds ( mph kmh ) Pressure ( in mb ) Visibility ( mi km ) Precip ( " mm )
12:53 am 00:53 Clear 60 15.6 58 14.4 93 93 N N/A 30.07 1018 10 16 N/A
1:53 am 01:53 Clear 60 15.6 57 13.9 90 90 N N/A 30.07 1018 10 16 N/A
2:53 am 02:53 Clear 59 15 57 13.9 93 93 N N/A 30.07 1018 10 16 N/A
3:53 am 03:53 Clear 58 14.4 56 13.3 93 93 N N/A 30.08 1019 10 16 N/A
4:44 am 04:44 Clear with Mist and Fog 58 14.4 57 13.9 97 97 N N/A 30.09 1019 2 3 N/A
4:53 am 04:53 Clear 56 13.3 55 12.8 97 97 N N/A 30.08 1019 7 11 N/A
5:00 am 05:00 Clear with Mist and Fog 56 13.3 54 12.2 93 93 N N/A 30.09 1019 2 2 N/A
5:13 am 05:13 Clear with Mist and Fog 57 13.9 56 13.3 96 96 N N/A 30.09 1019 4 6 N/A
5:53 am 05:53 Clear with Mist and Fog 57 13.9 56 13.3 96 96 N N/A 30.09 1019 6 10 N/A
6:53 am 06:53 Sunny 57 13.9 56 13.3 96 96 N N/A 30.11 1020 10 16 N/A
7:53 am 07:53 Mostly Cloudy 60 15.6 58 14.4 93 93 N N/A 30.12 1020 10 16 N/A
8:53 am 08:53 Partly Cloudy 62 16.7 57 13.9 84 84 E 3 6 30.13 1020 10 16 N/A
9:53 am 09:53 Sunny 67 19.4 57 13.9 71 71 ENE 3 6 30.13 1020 10 16 N/A
10:53 am 10:53 Sunny 71 21.7 57 13.9 61 61 ENE 5 7 30.12 1020 10 16 N/A
11:53 am 11:53 Sunny 72 22.2 56 13.3 57 57 SE 5 7 30.13 1020 10 16 N/A
12:53 pm 12:53 Partly Cloudy 75 23.9 57 13.9 54 54 VRB 3 6 30.13 1020 10 16 N/A
1:53 pm 13:53 Sunny 76 24.4 55 12.8 48 48 ENE 5 7 30.12 1020 10 16 N/A
2:53 pm 14:53 Partly Cloudy 76 24.4 55 12.8 48 48 E 5 7 30.11 1020 10 16 N/A
3:53 pm 15:53 Partly Cloudy 78 25.6 56 13.3 47 47 E 6 9 30.10 1019 10 16 N/A
4:53 pm 16:53 Mostly Cloudy 76 24.4 54 12.2 47 47 NNW 3 6 30.09 1019 10 16 N/A
5:53 pm 17:53 Mostly Cloudy 77 25 54 12.2 45 45 N N/A 30.09 1019 10 16 N/A
6:53 pm 18:53 Partly Cloudy 75 23.9 54 12.2 48 48 WNW 5 7 30.07 1018 10 16 N/A
7:53 pm 19:53 Sunny 73 22.8 54 12.2 51 51 N 7 11 30.07 1018 10 16 N/A
8:53 pm 20:53 Clear 68 20 58 14.4 70 70 N N/A 30.07 1018 10 16 N/A
9:53 pm 21:53 Clear 63 17.2 58 14.4 84 84 E 5 7 30.08 1019 10 16 N/A
10:53 pm 22:53 Clear 63 17.2 58 14.4 84 84 N N/A 30.09 1019 10 16 N/A
11:53 pm 23:53 Clear 61 16.1 58 14.4 90 90 N N/A 30.10 1019 10 16 N/A

Powered by AerisWeather